Springfield, CO

4:39 PM MST on November 21, 2017 (GMT -0700)
Springfield

Weather History for KSPD - September, 2013

Change the Weather History Date:

Monday, September 2, 2013

  Actual Average Record
Temperature  
Mean Temperature 76 °F -  
Max Temperature 92 °F 85 °F 98 °F (2012)
Min Temperature 59 °F 57 °F 48 °F (2006)
Degree Days  
Heating Degree Days 0 1  
Month to date heating degree days 0 2  
Since 1 July heating degree days 1 9  
Cooling Degree Days 11 7  
Month to date cooling degree days 23 14  
Year to date cooling degree days 1187 915  
Growing Degree Days 26 (Base 50)    
Moisture  
Dew Point 55 °F    
Average Humidity 55    
Maximum Humidity 78    
Minimum Humidity 32    
Precipitation  
Precipitation 0.00 in 0.05 in 0.06 in (2006)
Month to date precipitation 0.00 0.11  
Year to date precipitation 9.74  
Sea Level Pressure  
Sea Level Pressure 29.97 in    
Wind  
Wind Speed 12 mph (SSE)    
Max Wind Speed 23 mph    
Max Gust Speed 29 mph    
T = Trace of Precipitation, MM = Missing Value Source: NWS Daily Summary

Daily Weather History Graph

Daily Weather History Graph

Search for Another Location

Airport or City:

Trip Planner

Search our weather history database for the weather conditions in past years. The results will help you decide how hot, cold, wet, or windy it might be!

Date:

Astronomy

Sep. 02, 2013 Rise Set
Actual Time 6:22 AM MDT 7:17 PM MDT
Civil Twilight 5:55 AM MDT 7:43 PM MDT
Nautical Twilight 5:23 AM MDT 8:15 PM MDT
Astronomical Twilight 4:51 AM MDT 8:47 PM MDT
Moon 3:43 AM MDT (9/2) 5:30 PM MDT (9/2)
Length of Visible Light 13h 48m
Length of Day
12h 55m
Waning Crescent, 7% of the Moon is Illuminated
Sep 2
Waning Crescent
Sep 5
New
Sep 12
First Quarter
Sep 19
Full
Sep 26
Last Quarter

Hourly Weather History & Observations

Time (MDT) Temp. Heat Index Dew Point Humidity Pressure Visibility Wind Dir Wind Speed Gust Speed Precip Events Conditions
12:56 AM 68.0 °F - 55.0 °F 63% 30.00 in - SSW 3.5 mph - N/A   Unknown
1:56 AM 66.0 °F - 54.0 °F 65% 30.01 in - Calm Calm - N/A   Unknown
2:56 AM 63.0 °F - 54.0 °F 72% 30.02 in - WNW 4.6 mph - N/A   Unknown
3:56 AM 61.0 °F - 53.1 °F 75% 30.01 in - Calm Calm - N/A   Unknown
4:56 AM 62.1 °F - 54.0 °F 75% 30.00 in - SSE 6.9 mph - N/A   Unknown
5:56 AM 61.0 °F - 54.0 °F 78% 30.01 in - South 3.5 mph - N/A   Unknown
6:56 AM 61.0 °F - 54.0 °F 78% 30.03 in - Calm Calm - N/A   Unknown
7:56 AM 69.1 °F - 57.0 °F 65% 30.03 in - South 11.5 mph - N/A   Unknown
8:56 AM 73.0 °F - 57.9 °F 59% 30.03 in - South 15.0 mph 21.9 mph N/A   Unknown
9:56 AM 78.1 °F - 60.1 °F 54% 30.02 in - South 13.8 mph 20.7 mph N/A   Unknown
10:56 AM 82.0 °F 82.1 °F 59.0 °F 45% 30.01 in - South 16.1 mph 24.2 mph N/A   Unknown
11:56 AM 84.0 °F 84.0 °F 60.1 °F 44% 29.99 in - South 13.8 mph 25.3 mph N/A   Unknown
12:56 PM 86.0 °F 85.0 °F 57.9 °F 38% 29.96 in - SSE 15.0 mph 26.5 mph N/A   Unknown
1:56 PM 88.0 °F 86.7 °F 57.0 °F 35% 29.95 in - SSE 17.3 mph 25.3 mph N/A   Unknown
2:56 PM 90.0 °F 88.1 °F 55.9 °F 31% 29.92 in - SSE 21.9 mph 26.5 mph N/A   Unknown
3:56 PM 87.1 °F 85.7 °F 55.9 °F 35% 29.91 in - SSE 18.4 mph 26.5 mph N/A   Unknown
4:56 PM 88.0 °F 86.5 °F 55.9 °F 34% 29.91 in - SSE 19.6 mph 26.5 mph N/A   Unknown
5:56 PM 86.0 °F 84.5 °F 55.0 °F 35% 29.91 in - SSE 16.1 mph 23.0 mph N/A   Unknown
6:56 PM 82.9 °F 82.0 °F 55.0 °F 38% 29.92 in - SSE 15.0 mph 21.9 mph N/A   Unknown
7:56 PM 78.1 °F - 53.1 °F 42% 29.93 in - SE 12.7 mph - N/A   Unknown
8:56 PM 75.0 °F - 50.0 °F 41% 29.94 in - SSE 11.5 mph - N/A   Unknown
9:56 PM 72.0 °F - 48.9 °F 44% 29.96 in - SSE 9.2 mph - N/A   Unknown
10:56 PM 71.1 °F - 46.9 °F 42% 29.96 in - SSE 11.5 mph - N/A   Unknown
11:56 PM 69.1 °F - 46.0 °F 44% 29.96 in - SSE 11.5 mph - N/A   Unknown